Location: Grand Lay
(47.3253°N, 0.9468°E)
Time: 22:07:20
(UTC+00:00)

Cosmos 1707 Rocket - Pass Details

Date: 18 January 2026
Orbit: 599 x 623 km, 82.5° (Epoch: 17 February)

Event Time Altitude Azimuth Distance (km) Brightness Sun altitude
Exits shadow 06:15:14 - 346° (NNW) 2,732 6.6 -13.5°
Reaches altitude 10° 06:17:10 10° 342° (NNW) 1,956 5.8 -13.2°
Maximum altitude 06:21:23 55° 266° (W) 731 3.6 -12.5°
Drops below altitude 10° 06:25:36 10° 188° (S) 1,952 6.2 -11.8°
Sets 06:27:50 0° 184° (S) 2,855 7.2 -11.5°
